CW3224 Weather Reports


time (UTC)temp
C
wind
direction
speed
KPH
gust
KPH
rain 1hr
cm
rain 24hr
cm
rain mn
cm
humidity
%
barometer
mb
20260505025032 14 204 6.4 17.7 0.00 0.00 0.00 58 1009.3
20260505024026 14 216 6.4 11.3 0.00 0.00 0.00 58 1009.5
20260505023503 15 219 6.4 14.5 0.00 0.00 0.00 57 1009.5
20260505022517 15 227 6.4 12.9 0.00 0.00 0.00 56 1009.6
20260505021957 15 217 4.8 11.3 0.00 0.00 0.00 56 1009.6
20260505020024 15 181 6.4 12.9 0.00 0.00 0.00 55 1009.6
20260505015024 15 187 8.0 20.9 0.00 0.00 0.00 54 1009.3
20260505014023 15 223 8.0 20.9 0.00 0.00 0.00 54 1009.2
20260505013020 16 217 8.0 16.1 0.00 0.00 0.00 53 1008.9
20260505012020 16 106 6.4 19.3 0.00 0.00 0.00 52 1008.9
20260505011021 16 211 6.4 19.3 0.00 0.00 0.00 52 1008.7
20260505010018 16 210 6.4 20.9 0.00 0.00 0.00 51 1008.5
20260505005018 16 206 8.0 19.3 0.00 0.00 0.00 50 1008.5
20260505004018 17 212 9.7 24.1 0.00 0.00 0.00 49 1008.1
20260505003019 17 218 9.7 25.7 0.00 0.00 0.00 48 1007.6
20260505002019 17 227 8.0 24.1 0.00 0.00 0.00 48 1007.6
20260505001013 17 177 8.0 22.5 0.00 0.00 0.00 46 1007.5
20260505000013 18 225 8.0 19.3 0.00 0.00 0.00 45 1007.1
20260504235010 18 206 6.4 17.7 0.00 0.00 0.00 42 1007.1
20260504234010 19 229 3.2 8.0 0.00 0.00 0.00 40 1006.6
20260504233011 19 59 3.2 8.0 0.00 0.00 0.00 40 1006.5
20260504232012 19 210 3.2 11.3 0.00 0.00 0.00 38 1006.5
20260504231012 20 229 4.8 14.5 0.00 0.00 0.00 40 1006.4
20260504230011 20 213 3.2 25.7 0.00 0.00 0.00 38 1006.2
20260504225011 20 225 6.4 16.1 0.00 0.00 0.00 37 1006.2
20260504224010 20 208 4.8 14.5 0.00 0.00 0.00 37 1006.0
20260504223011 20 231 6.4 20.9 0.00 0.00 0.00 36 1006.1
20260504222442 20 215 4.8 14.5 0.00 0.00 0.00 38 1006.1
20260504221443 20 19 4.8 14.5 0.00 0.00 0.00 38 1006.1
20260504220005 20 301 4.8 16.1 0.00 0.00 0.00 37 1006.0
20260504215004 20 301 4.8 17.7 0.00 0.00 0.00 38 1006.0
20260504214004 21 301 4.8 12.9 0.00 0.00 0.00 36 1006.0
20260504213005 21 237 4.8 19.3 0.00 0.00 0.00 37 1006.1
20260504212004 21 243 6.4 14.5 0.00 0.00 0.00 35 1006.1
20260504211435 21 276 4.8 16.1 0.00 0.00 0.00 37 1006.2
20260504210445 21 237 4.8 11.3 0.00 0.00 0.00 37 1006.1
20260504204951 21 235 4.8 17.7 0.00 0.00 0.00 37 1006.1
20260504203952 21 251 6.4 20.9 0.00 0.00 0.00 37 1006.1
20260504202952 21 203 4.8 19.3 0.00 0.00 0.00 37 1006.1
20260504202432 21 191 6.4 17.7 0.00 0.00 0.00 35 1006.1
20260504200944 21 214 6.4 16.1 0.00 0.00 0.00 35 1006.0
20260504195943 21 301 6.4 20.9 0.00 0.00 0.00 37 1006.2
20260504194944 21 328 4.8 14.5 0.00 0.00 0.00 37 1006.2
20260504193944 20 301 6.4 22.5 0.00 0.00 0.00 36 1006.3
20260504193422 21 301 6.4 20.9 0.00 0.00 0.00 35 1006.1
20260504191941 21 301 9.7 24.1 0.00 0.00 0.00 34 1006.1
20260504190941 22 192 6.4 24.1 0.00 0.00 0.00 32 1006.5
20260504185940 22 245 8.0 22.5 0.00 0.00 0.00 34 1006.6
20260504184939 22 218 9.7 24.1 0.00 0.00 0.00 31 1006.6
20260504183939 22 183 9.7 24.1 0.00 0.00 0.00 32 1007.1
20260504182938 22 81 4.8 19.3 0.00 0.00 0.00 34 1006.9
20260504181938 22 232 6.4 17.7 0.00 0.00 0.00 33 1006.9
20260504180928 22 276 8.0 17.7 0.00 0.00 0.00 37 1007.1
20260504175928 22 245 8.0 17.7 0.00 0.00 0.00 33 1007.0
20260504174928 22 257 6.4 25.7 0.00 0.00 0.00 35 1007.0
20260504173927 22 181 8.0 27.4 0.00 0.00 0.00 34 1007.1
20260504172926 22 252 6.4 16.1 0.00 0.00 0.00 41 1007.1
20260504171923 21 194 4.8 17.7 0.00 0.00 0.00 33 1007.1
20260504170924 20 252 11.3 37.0 0.00 0.00 0.00 34 1007.4
20260504150914 19 278 4.8 11.3 0.00 0.00 0.00 42 1008.6
20260504140905 16 236 6.4 16.1 0.00 0.00 0.00 50 1009.2
20260504081821 3 260 0.0 0.0 0.00 0.00 0.00 83 1010.2
20260504081300 3 260 0.0 0.0 0.00 0.00 0.00 82 1010.1
20260504050739 0 260 0.0 0.0 0.00 0.00 0.00 84 1010.1
20260504045739 0 260 0.0 0.0 0.00 0.00 0.00 84 1010.1
20260504044728 0 260 0.0 0.0 0.00 0.00 0.00 83 1010.1
20260504043728 0 260 0.0 0.0 0.00 0.00 0.00 83 1010.1
20260504042727 0 260 0.0 0.0 0.00 0.00 0.00 82 1010.1
20260504041727 0 260 0.0 0.0 0.00 0.00 0.00 82 1010.1
20260504041651 0 260 0.0 0.0 0.00 0.00 0.00 81 1009.9
20260504040208 1 260 0.0 0.0 0.00 0.00 0.00 80 1009.8
20260504034722 1 260 0.0 0.0 0.00 0.00 0.00 80 1009.8
20260504033720 1 260 0.0 0.0 0.00 0.00 0.00 79 1009.7
20260504032718 1 260 0.0 0.0 0.00 0.00 0.00 79 1009.7
20260504031719 1 260 0.0 0.0 0.00 0.00 0.00 79 1009.7
20260504030711 1 260 0.0 0.0 0.00 0.00 0.00 78 1009.7
20260504025712 2 260 0.0 0.0 0.00 0.00 0.00 76 1009.7